Regional Weather Roundup
Issued by NWS

Home | Current Version | Previous Version | Graphics & Text | Print | Product List | Glossary Off
Versions: 1 2 3 4 5 6 7 8 9 10 11 12 13 14 15 16 17 18 19 20 21 22 23 24 25 26 27 28 29 30 31 32 33 34 35 36 37 38 39 40 41 42 43 44 45 46 47 48 49 50

000
ASUS43 KLSX 250207
RWRMO

WEATHER SUMMARY FOR MISSOURI
NATIONAL WEATHER SERVICE SPRINGFIELD MO
900 PM CDT FRI MAR 24 2017

NOTE: "FAIR" INDICATES FEW OR NO CLOUDS BELOW 12,000 FEET WITH NO
       SIGNIFICANT WEATHER AND/OR OBSTRUCTIONS TO VISIBILITY.
       CURRENT SKY AND/OR WEATHER CONDITIONS ARE NOT AVAILABLE FOR
       CHILLICOTHE AND FARMINGTON.

MOZ001>031-035>038-043-044-053-054-250300-
...NORTHERN AND WESTERN MISSOURI...

CITY           SKY/WX    TMP DP  RH WIND       PRES   REMARKS
KANSAS CTY INT CLOUDY    60  57  89 S9        29.84R
KANSAS C DTWN  CLOUDY    61  57  87 CALM      29.83R
LEE`S SUMMIT   CLOUDY    59  57  93 SE7       29.83F
ST JOSEPH      CLOUDY    59  59 100 CALM      29.84S
CHILLICOTHE      N/A     59  58  96 SE6       29.87S
KIRKSVILLE     CLOUDY    57  57 100 CALM      29.92F

$$
MOZ066>068-077>081-088>096-101>105-250300-
...SOUTHWEST MISSOURI...

CITY           SKY/WX    TMP DP  RH WIND       PRES   REMARKS
SPRINGFIELD    HVY RAIN  57  52  83 VRB3      29.94R
JOPLIN         CLOUDY    60  54  80 SE7G16    29.80R
BRANSON        RAIN      54  54 100 W8        29.94R FOG

$$
MOZ032>034-039>042-045>050-055>058-069>072-250300-
...CENTRAL MISSOURI...

CITY           SKY/WX    TMP DP  RH WIND       PRES   REMARKS
COLUMBIA       CLOUDY    59  55  87 SW6       29.92F
JEFFERSON CITY LGT RAIN  64  54  69 W12       29.93R
ROLLA          CLOUDY    66  54  65 E8        29.87F
SEDALIA        CLOUDY    60  57  89 S9        29.87F
WHITEMAN AFB   MOCLDY    56  56 100 SE12G18   29.84F
WARRENSBURG    CLOUDY    55  55 100 E6        29.84F
OSAGE BEACH    RAIN     N/A N/A N/A SW5       29.96R

$$
MOZ051-052-059>065-250300-
...EAST CENTRAL MISSOURI...

CITY           SKY/WX    TMP DP  RH WIND       PRES   REMARKS
ST LOUIS INTL  CLOUDY    72  54  53 SE9       29.96F
SPIRIT OF STL  CLOUDY    71  56  58 SE7       29.93F
ST CHARLES     CLOUDY    69  55  60 S10       29.94F

$$
MOZ072>076-082>087-097>100-106>115-250300-
...SOUTH CENTRAL AND SOUTHEAST MISSOURI...

CITY           SKY/WX    TMP DP  RH WIND       PRES   REMARKS
CAPE GIRARDEAU CLOUDY    66  55  67 SE10      30.01F
FARMINGTON     CLOUDY    68  58  70 SE7G18    29.98F
POPLAR BLUFF   CLOUDY    68  59  73 SE13      29.96F
WEST PLAINS    CLOUDY    68  55  63 SE15G21   29.90F

$$




USA.gov is the U.S. government's official web portal to all federal, state and local government web resources and services.